Location: G�migny
(47.9646°N, 1.6950°E)
Time: 06:33:26
(UTC+00:00)

STARLINK-59 - Pass Details

Date: 23 October 2019
Orbit: 548 x 551 km, 53.0° (Epoch: 12 November)

Event Time Altitude Azimuth Distance (km) Brightness Sun altitude
Rises 18:52:24 0° 294° (WNW) 2,721 8.5 -21.0°
Reaches altitude 10° 18:54:40 10° 298° (WNW) 1,826 7.2 -21.4°
Maximum altitude 18:58:46 57° 18° (NNE) 651 3.8 -22.1°
Enters shadow 18:58:49 57° 22° (NNE) 652 3.8 -22.1°
